sat.trackr.live / text

‹ back to catalog

GPS BIIR-5 (PRN 22)

NORAD 26407 · 2000-040A

PAYLOAD ACTIVE UNKNOWN

§ Identity

Operator
Country
US
Launch date
2000-07-16
Launch site
AFETR
Launch vehicle
Mass (kg)
RCS (m²)
5.24

Purposes: nav

External: N2YO · Heavens-Above · Gunter

§ Orbital elements

Epoch: 2026-09-19T20:05:18.972960Z

Period
718.00 min
Inclination
54.8377°
Eccentricity
0.0117953
Mean motion
2.00558455 rev/d
Perigee alt
19,869.4 km
Apogee alt
20,496.0 km
Semi-major
26,560.8 km
B*
0.0000e+0
RAAN
211.4058°
Arg perigee
303.9320°
Mean anomaly
280.2100°
Rev number
19,184

§ Raw data

GPS BIIR-5  (PRN 22)1 26407U 00040A   26262.83702515  .00000003  00000+0  00000+0 0  99932 26407  54.8377 211.4058 0117953 303.9320 280.2100  2.00558455191842

JSON: /api/v1/satellites/26407 · /tle

For live sub-satellite position, see the globe view (requires WebGL).

§ Visibility from observer

Set your observer location to see the next 7 days of passes ≥ 10°. The values pass through the URL so the page stays shareable.

No JS? Fill the form by hand. The geolocation button needs JavaScript.